Location: Luxembourg
(49.6117°N, 6.1300°E)
Time: 17:01:52
(UTC+02:00)

Tiangong 2 - Pass Details

Date: 28 May 2019
Orbit: 376 x 389 km, 42.8° (Epoch: 19 June)

Event Time Altitude Azimuth Distance (km) Brightness Sun altitude
Rises 22:59:12 0° 259° (W) 2,237 5.3 -11.1°
Maximum altitude 23:03:20 10° 205° (SSW) 1,374 3.6 -11.5°
Drops below altitude 10° 23:03:37 10° 200° (SSW) 1,379 3.5 -11.5°
Enters shadow 23:03:54 10° 195° (SSW) 1,394 3.5 -11.6°
